Beijing Capital International Airport
ZBAA : now visible

Airfield :











YOU CAN JOIN US ON...

 
LOGIN :

Register | Disclaimer

   EN    FR    IT 

 









Legend :    VFR   Marginal VFR   IFR   Intensive IFR   Very Intensive IFR
Visi :
Ceiling :
>= 8 km
>= 3000ft
5 to 8 km
1000 to 3000 ft
1500m to 5 km
500 to 1000 ft
800 to 1500m
200 to 500 ft
< 800m
< 200 ft
Symbols :   Thunderstorms  Fog  Heavy snow  Heavy precipitations  Wind > 20 kt







- Airport Elevation : 116 ft
- IATA code : PEK


ZBAA - Beijing Capital International

CURRENT METAR :
  • 260630Z 01004MPS 340V090 CAVOK 20/16 Q1002 NOSIG

EXPIRED METARs :
  • 260600Z 01005MPS 340V040 CAVOK 21/18 Q1002 NOSIG
  • 260530Z VRB01MPS CAVOK 20/18 Q1003 NOSIG
  • 260500Z 33004G09MPS 300V010 9999 -RA NSC 20/17 Q1003 NOSIG
  • 260430Z 32004MPS 280V360 9999 -RA NSC 19/17 Q1004 NOSIG
  • 260400Z 31006MPS 9999 -RA NSC 19/18 Q1004 NOSIG

TAF TAF ZBAA
Valid from the 26 at 00:00 until the 27 at 00:00 UTC


252120Z 2600/2624 36004MPS 6000 NSC TX24/2607Z TN18/2621Z
TEMPO 2600/2606 -TSRA FEW040CB
ZBPE FIR / Asia



MET'MAP, your aeronautical weather chart ! - Copyright ORBIFLY December 2007 - Disclaimer

ORBIFLY MET'MAP TEAM :

Programming & Development : Alexandra Zaïnal
Concept & Development : Baudouin d'Aumeries
Co-Development & Prog : Marc-Olivier Méhu
Technical & hardware support : Manuel Goepfert

Contact : metmap@orbifly.com




SOURCES & CREDITS :

   NOAA       Earth
Advisory